User: anonymous   Login
Location: Fairmont
(43.6520°N, 94.4610°W)
Time: 05:21:03
(UTC-05:00)
Language:

Cosmos-2242 - Orbit

View from above orbital plane
View from above orbital plane
View from above satellite
View from above satellite

Ground track
Ground track

The orbit data is extracted from the following two-line orbital elements,

1 22626U 93024A   15208.92907726  .00000376  00000-0  39139-4 0  9999
2 22626 082.5242 332.2915 0017883 249.6089 110.3207 14.87056627203547
Epoch (UTC): 27 July 2015 22:17:52
Eccentricity: 0.0017883
inclination: 82.5242°
perigee height: 594 km
apogee height: 619 km
right ascension of ascending node: 332.2915°
argument of perigee: 249.6089°
revolutions per day: 14.87056627
mean anomaly at epoch: 110.3207°
orbit number at epoch: 20354

The dashed part of the orbit path shows where the satellite is in the earth's shadow,  

DLR